Location: Dover
(48.8500°N, 53.9833°W)
Time: 03:33:31
(UTC+00:00)

Iridium 4 Rocket - Visible Passes

Search period start: 19 February 2026 00:00
Search period end: 01 March 2026 00:00
Orbit: 580 x 886 km, 86.9° (Epoch: 18 February)

Date Brightness Start Highest point End Pass type
(mag) Time Alt. Az. Time Alt. Az. Time Alt. Az.
19 Feb 6.0 00:55:27 10° NW 00:57:34 13° WNW 00:57:34 13° WNW visible
19 Feb 3.9 22:27:43 10° NNE 22:31:35 27° ENE 22:32:11 27° E visible
20 Feb 4.8 00:07:23 10° NNW 00:11:20 31° W 00:11:46 30° W visible
20 Feb 4.9 21:42:40 10° NE 21:44:17 12° ENE 21:45:53 10° E visible
20 Feb 3.0 23:20:19 10° N 23:24:48 80° W 23:26:09 43° S visible
21 Feb 3.4 22:33:46 10° N 22:37:57 39° E 22:40:52 16° SE visible
22 Feb 5.4 00:14:03 10° NNW 00:17:24 21° W 00:20:30 10° SW visible
22 Feb 6.7 09:50:46 10° E 09:52:50 12° ENE 09:54:52 10° NE visible
22 Feb 4.5 21:47:59 10° NNE 21:50:47 16° ENE 21:53:29 10° ESE visible
22 Feb 3.7 23:26:41 10° NNW 23:30:58 53° W 23:35:01 10° SSW visible
23 Feb 3.0 22:39:55 10° N 22:44:14 57° E 22:48:19 10° SSE visible
24 Feb 6.0 00:20:59 10° NW 00:23:24 15° WNW 00:25:46 10° WSW visible
24 Feb 6.4 09:55:37 10° ESE 09:58:53 17° ENE 10:02:02 10° NE visible
24 Feb 4.1 21:53:44 10° NNE 21:57:12 23° ENE 22:00:31 10° SE visible
24 Feb 4.6 23:33:08 10° NNW 23:37:04 35° W 23:40:51 10° SSW visible
25 Feb 2.9 22:46:08 10° N 22:50:27 86° E 22:54:35 10° S visible
26 Feb 3.6 21:59:40 10° NNE 22:03:32 32° ENE 22:07:17 10° SE visible
26 Feb 5.3 23:39:41 10° NNW 23:43:08 24° W 23:46:28 10° SW visible
27 Feb 3.4 22:52:24 10° N 22:56:37 63° W 23:00:41 10° S visible
28 Feb 3.2 22:05:43 10° N 22:09:49 47° E 22:13:49 10° SSE visible
28 Feb 5.9 23:46:27 10° NW 23:49:09 17° WNW 23:51:48 10° WSW visible
